Santa Barbara, CA

1:21 PM PDT on May 28, 2017 (GMT -0700)
Santa Barbara Municipal

Weather History for KSBA - June, 2013

Change the Weather History Date:

Sunday, June 9, 2013

  Actual Average Record
Temperature  
Mean Temperature 62 °F 62 °F  
Max Temperature 64 °F 70 °F 95 °F (1979)
Min Temperature 59 °F 53 °F 44 °F (1952)
Degree Days  
Heating Degree Days 3 4  
Month to date heating degree days 25 36  
Since 1 June heating degree days 25 36  
Since 1 July heating degree days 1967 2320  
Cooling Degree Days 0 0  
Month to date cooling degree days 0 0  
Year to date cooling degree days 57 14  
Since 1 June cooling degree days 0 0  
Growing Degree Days 12 (Base 50)    
Moisture  
Dew Point 57 °F    
Average Humidity 83    
Maximum Humidity 93    
Minimum Humidity 73    
Precipitation  
Precipitation 0.02 in 0.00 in 0.30 in (2015)
Month to date precipitation 0.03 0.03  
Year to date precipitation 3.35 12.01  
Since 1 July precipitation 9.42  
Sea Level Pressure  
Sea Level Pressure 29.90 in    
Wind  
Wind Speed 5 mph (SE)    
Max Wind Speed 10 mph    
Max Gust Speed 13 mph    
Visibility 8 miles    
Events Rain    
T = Trace of Precipitation, MM = Missing Value Source: NWS Daily Summary

Daily Weather History Graph

Daily Weather History Graph

Search for Another Location

Airport or City:

Trip Planner

Search our weather history database for the weather conditions in past years. The results will help you decide how hot, cold, wet, or windy it might be!

Date:

Astronomy

Jun. 09, 2013 Rise Set
Actual Time 5:46 AM PDT 8:11 PM PDT
Civil Twilight 5:17 AM PDT 8:40 PM PDT
Nautical Twilight 4:41 AM PDT 9:16 PM PDT
Astronomical Twilight 4:01 AM PDT 9:55 PM PDT
Moon 6:44 AM PDT (6/9) 9:04 PM PDT (6/9)
Length of Visible Light 15h 23m
Length of Day
14h 24m
New Moon, 1% of the Moon is Illuminated
Jun 9
New Moon
Jun 16
First Quarter
Jun 23
Full
Jun 29
Last Quarter
Jul 8
New

Hourly Weather History & Observations

Time (PDT) Temp. Dew Point Humidity Pressure Visibility Wind Dir Wind Speed Gust Speed Precip Events Conditions
12:53 AM 62.1 °F 57.9 °F 86% 29.89 in 10.0 mi ESE 8.1 mph - N/A   Overcast
1:53 AM 60.1 °F 57.9 °F 93% 29.89 in 5.0 mi SSE 9.2 mph - N/A   Overcast
2:53 AM 59.0 °F 57.0 °F 93% 29.88 in 5.0 mi South 6.9 mph - N/A   Overcast
3:53 AM 59.0 °F 57.0 °F 93% 29.88 in 4.0 mi South 6.9 mph - N/A   Overcast
4:53 AM 59.0 °F 57.0 °F 93% 29.88 in 4.0 mi South 3.5 mph - 0.01 in Rain Light Rain
5:53 AM 60.1 °F 57.0 °F 90% 29.88 in 4.0 mi Calm Calm - 0.00 in   Overcast
6:53 AM 60.1 °F 57.9 °F 93% 29.89 in 3.0 mi ENE 3.5 mph - 0.01 in   Overcast
7:53 AM 61.0 °F 57.9 °F 90% 29.90 in 4.0 mi SE 5.8 mph - N/A   Overcast
8:53 AM 62.1 °F 59.0 °F 90% 29.91 in 4.0 mi SE 5.8 mph - N/A   Overcast
9:53 AM 62.1 °F 60.1 °F 93% 29.91 in 10.0 mi SSE 6.9 mph - N/A   Overcast
10:53 AM 63.0 °F 59.0 °F 87% 29.92 in 10.0 mi South 4.6 mph - N/A   Overcast
11:53 AM 63.0 °F 57.9 °F 84% 29.92 in 8.0 mi South 4.6 mph - N/A   Overcast
12:53 PM 64.0 °F 57.9 °F 80% 29.92 in 8.0 mi South 3.5 mph - N/A   Overcast
1:53 PM 63.0 °F 57.9 °F 84% 29.92 in 8.0 mi Calm Calm - N/A   Overcast
2:53 PM 64.0 °F 57.9 °F 80% 29.91 in 8.0 mi Variable 3.5 mph - N/A   Overcast
3:00 PM 62.6 °F 57.2 °F 82% 29.91 in 10.0 mi SE 4.6 mph - N/A   Overcast
3:38 PM 62.6 °F 57.2 °F 82% 29.90 in 10.0 mi SSE 4.6 mph - N/A   Overcast
3:53 PM 64.0 °F 57.9 °F 80% 29.90 in 10.0 mi SE 5.8 mph - N/A   Overcast
4:53 PM 64.0 °F 57.9 °F 80% 29.89 in 10.0 mi SE 5.8 mph - N/A   Overcast
5:53 PM 64.0 °F 57.0 °F 78% 29.88 in 10.0 mi SE 6.9 mph - N/A   Overcast
6:53 PM 64.0 °F 55.9 °F 75% 29.87 in 10.0 mi ESE 5.8 mph - N/A   Overcast
7:53 PM 63.0 °F 55.9 °F 78% 29.88 in 10.0 mi East 5.8 mph - N/A   Overcast
8:53 PM 63.0 °F 55.9 °F 78% 29.88 in 10.0 mi East 6.9 mph - N/A   Overcast
9:53 PM 63.0 °F 55.9 °F 78% 29.89 in 10.0 mi ESE 4.6 mph - N/A   Overcast
10:53 PM 63.0 °F 55.0 °F 75% 29.90 in 10.0 mi ESE 4.6 mph - N/A   Overcast
11:53 PM 62.1 °F 55.9 °F 80% 29.90 in 10.0 mi ENE 4.6 mph - N/A   Overcast